Location: ??????
(41.3794°N, 22.5014°E)
Time: 08:18:56
(UTC+00:00)

USA 267 - Pass Details

Date: 30 November 2020
Orbit: 1100 x 1107 km, 123.0° (Epoch: 06 January)

Event Time Altitude Azimuth Distance (km) Brightness Sun altitude
Exits shadow 16:31:06 23° 64° (ENE) 2,153 4.2 -16.4°
Maximum altitude 16:34:00 33° 22° (NNE) 1,774 4.1 -16.9°
Drops below altitude 10° 16:39:39 10° 322° (NW) 2,964 5.8 -18.0°
Sets 16:42:23 0° 313° (NW) 3,924 6.6 -18.5°
